Regional Weather Roundup
Issued by NWS

Home | Current Version | Previous Version | Text Only | Print | Product List | Glossary On
Versions: 1 2 3 4 5 6 7 8 9 10 11 12 13 14 15 16 17 18 19 20 21 22 23 24 25 26 27 28 29 30 31 32 33 34 35 36 37 38 39 40 41 42 43 44 45 46 47 48 49 50
000
ASUS43 KTOP 310259
RWRKS

WEATHER ROUNDUP FOR KANSAS
NATIONAL WEATHER SERVICE GOODLAND KS
900 PM CST FRI JAN 30 2015

NOTE:  "FAIR" INDICATES FEW OR NO CLOUDS BELOW 12,000 FEET WITH NO
SIGNIFICANT WEATHER AND/OR OBSTRUCTIONS TO VISIBILITY.

KSZ001>006-013>018-027>032-041>047-310400-
NORTHWEST KANSAS

CITY           SKY/WX    TMP DP  RH WIND       PRES   REMARKS
GOODLAND       CLOUDY    34  32  92 S18       30.13F WCI  23
HAYS           CLOUDY    37  27  65 SW14      30.27F WCI  29
HILL CITY      LGT SNOW  35  32  88 S9        30.25F FOG
RUSSELL        FLURRIES  36  32  85 S10       30.28R WCI  28
$$

KSZ061>065-074>080-084>089-310400-
SOUTHWEST KANSAS

CITY           SKY/WX    TMP DP  RH WIND       PRES   REMARKS
DODGE CITY     LGT SNOW  33  30  88 S12       30.24F FOG     WCI  24
ELKHART          N/A     34  29  82 S16         N/A  WCI  24
GARDEN CITY    MIX PCPN  32  32 100 S13       30.20F WCI  22
LIBERAL        CLOUDY    36  28  75 SE8       30.25F
$$

KSZ066>073-081>083-090>101-310400-
SOUTHEAST KANSAS

CITY           SKY/WX    TMP DP  RH WIND       PRES   REMARKS
CHANUTE        CLOUDY    38  26  62 S5        30.38S
COFFEYVILLE    CLOUDY    40  27  59 CALM      30.39S
HUTCHINSON     CLOUDY    39  26  59 S7        30.33F
MEDICINE LODGE   N/A     38  26  62 S7        30.32F
NEWTON         CLOUDY    39  23  52 S6        30.34F
PARSONS        CLOUDY    38  28  67 CALM      30.39S
WICHITA INTL   CLOUDY    40  25  55 S3        30.33F
WICHITA JABRA  CLOUDY    40  25  55 S7        30.34F
WINFIELD       CLOUDY    41  21  44 SE7       30.36F
$$

KSZ007>012-019>026-033>040-048>060-102>105-310400-
NORTHEAST KANSAS

CITY           SKY/WX    TMP DP  RH WIND       PRES   REMARKS
CONCORDIA      LGT RAIN  37  33  85 S10       30.31S WCI  30
EMPORIA        CLOUDY    37  23  56 S7        30.35F
LAWRENCE       CLOUDY    34  23  64 S5        30.37F
MANHATTAN      CLOUDY    40  26  57 S6        30.35F
OLATHE IND     CLOUDY    33  23  66 S6        30.37F
OLATHE EXE     CLOUDY    33  22  63 S6        30.36S
SALINA         LGT RAIN  38  33  82 S5        30.33F
TOPEKA BILLARD CLOUDY    37  23  56 S5        30.37F
TOPEKA FORBES  CLOUDY    37  24  59 S7        30.35F
$$


USA.gov is the U.S. government's official web portal to all federal, state and local government web resources and services.